DW8131 Weather Reports


Display with metric or nautical units.
time (UTC)temp
F
wind
direction
speed
MPH
gust
MPH
rain 1hr
in
rain 24hr
in
rain mn
in
humidity
%
barometer
mb
20260507064520 59 316 2.0 0.0 0.00 0.00 0.00 55 1015.1
20260507063017 57 238 1.0 0.0 0.00 0.00 0.00 58 1014.9
20260507061513 52 15 1.0 0.0 0.00 0.00 0.00 68 1014.9
20260507060015 48 31 1.0 0.0 0.00 0.00 0.00 71 1014.9
20260507054504 46 40 1.0 0.0 0.00 0.00 0.00 73 1014.8
20260507053126 44 61 1.0 0.0 0.00 0.00 0.00 74 1014.7
20260507051559 43 38 2.0 0.0 0.00 0.00 0.00 77 1014.5
20260507050057 41 44 2.0 0.0 0.00 0.00 0.00 79 1014.4
20260507044617 41 38 3.0 0.0 0.00 0.00 0.00 76 1014.2
20260507043055 0 0.0 0.0 0.00 0.00 0.00 1014.1
20260507041551 0 0.0 0.0 0.00 0.00 0.00 1014.1
20260507040047 0 0.0 0.0 0.00 0.00 0.00 1014.1
20260507034544 0 0.0 0.0 0.00 0.00 0.00 1013.8
20260507033047 0 0.0 0.0 0.00 0.00 0.00 1013.9
20260507031545 0 0.0 0.0 0.00 0.00 0.00 1013.9
20260507030025 0 0.0 0.0 0.00 0.00 0.00 1013.9
20260507024524 0 0.0 0.0 0.00 0.00 0.00 1013.9
20260507023017 0 0.0 0.0 0.00 0.00 0.00 1013.6
20260507021515 39 22 3.0 0.0 0.00 0.00 0.00 83 1013.6
20260507020013 39 30 2.0 0.0 0.00 0.00 0.00 82 1013.5
20260507014510 40 29 2.0 0.0 0.00 0.00 0.00 82 1013.5
20260507013008 40 28 3.0 0.0 0.00 0.00 0.00 83 1013.4
20260507011518 40 30 2.0 0.0 0.00 0.00 0.00 83 1013.3
20260507010004 40 31 2.0 0.0 0.00 0.00 0.00 83 1013.2
20260507004501 41 34 2.0 0.0 0.00 0.00 0.00 81 1013.0
20260507003108 42 28 0.0 0.0 0.00 0.00 0.00 80 1013.1
20260507001559 43 24 2.0 0.0 0.00 0.00 0.00 78 1013.0
20260507000052 43 16 3.0 0.0 0.00 0.00 0.00 78 1012.9
20260506234600 44 19 3.0 0.0 0.00 0.00 0.00 78 1012.7
20260506233052 44 349 4.0 0.0 0.00 0.00 0.00 78 1012.8
20260506231553 43 325 3.0 0.0 0.00 0.00 0.00 76 1012.8
20260506230042 43 318 3.0 0.0 0.00 0.00 0.00 74 1012.6
20260506224542 44 329 3.0 0.0 0.00 0.00 0.00 73 1012.5
20260506223042 44 337 3.0 0.0 0.00 0.00 0.00 72 1012.4
20260506221541 45 5 2.0 0.0 0.00 0.00 0.00 70 1012.5
20260506220039 45 15 3.0 0.0 0.00 0.00 0.00 68 1012.2
20260506214538 45 355 4.0 0.0 0.00 0.00 0.00 67 1012.2
20260506213040 45 326 3.0 0.0 0.00 0.00 0.00 68 1012.0
20260506211538 45 325 4.0 0.0 0.00 0.00 0.00 71 1012.0
20260506210037 46 317 4.0 0.0 0.00 0.00 0.00 73 1011.9
20260506204540 46 338 3.0 0.0 0.00 0.00 0.00 73 1011.8
20260506203040 46 338 3.0 0.0 0.00 0.00 0.00 72 1011.7
20260506201539 47 327 4.0 0.0 0.00 0.00 0.00 69 1011.7
20260506200039 47 333 4.0 0.0 0.00 0.00 0.00 68 1011.6
20260506194534 48 320 4.0 0.0 0.00 0.00 0.00 66 1011.6
20260506193033 49 5 4.0 0.0 0.00 0.00 0.00 65 1011.5
20260506191533 49 338 4.0 0.0 0.00 0.00 0.00 63 1011.4
20260506190038 50 360 4.0 0.0 0.00 0.00 0.00 61 1011.3
20260506184540 50 355 5.0 0.0 0.00 0.00 0.00 59 1011.1
20260506183031 51 333 5.0 0.0 0.00 0.00 0.00 56 1010.9
20260506181533 52 319 6.0 0.0 0.00 0.00 0.00 53 1010.8
20260506180031 52 328 5.0 0.0 0.00 0.00 0.00 54 1010.7
20260506174530 53 348 6.0 0.0 0.00 0.00 0.00 51 1010.6
20260506173035 53 323 7.0 0.0 0.00 0.00 0.00 49 1010.6
20260506171530 53 319 6.0 0.0 0.00 0.00 0.00 50 1010.6
20260506170031 54 310 7.0 0.0 0.00 0.00 0.00 49 1010.6
20260506164528 54 274 8.0 0.0 0.00 0.00 0.00 49 1010.4
20260506163031 54 324 8.0 0.0 0.00 0.00 0.00 47 1010.5
20260506161527 54 331 8.0 0.0 0.00 0.00 0.00 45 1010.5
20260506160028 54 316 8.0 0.0 0.00 0.00 0.00 45 1010.4
20260506154525 54 326 7.0 0.0 0.00 0.00 0.00 46 1010.5
20260506153024 54 314 9.0 0.0 0.00 0.00 0.00 45 1010.7
20260506151525 54 311 10.0 0.0 0.00 0.00 0.00 44 1010.6
20260506150022 55 348 11.0 0.0 0.00 0.00 0.00 42 1010.6
20260506144522 56 279 10.0 0.0 0.00 0.00 0.00 43 1010.5
20260506143025 56 312 9.0 0.0 0.00 0.00 0.00 44 1010.6
20260506141519 56 346 10.0 0.0 0.00 0.00 0.00 45 1010.8
20260506140018 57 316 10.0 0.0 0.00 0.00 0.00 45 1010.6
20260506134517 57 314 10.0 0.0 0.00 0.00 0.00 45 1010.8
20260506133018 58 312 11.0 0.0 0.00 0.00 0.00 42 1010.9
20260506131518 58 273 10.0 0.0 0.00 0.00 0.00 43 1010.9
20260506130014 59 301 11.0 0.0 0.00 0.00 0.00 42 1010.8
20260506124513 59 323 10.0 0.0 0.00 0.00 0.00 45 1010.8
20260506123012 60 260 10.0 0.0 0.00 0.00 0.00 43 1010.8
20260506121513 60 280 10.0 0.0 0.00 0.00 0.00 46 1010.9
20260506120015 61 306 10.0 0.0 0.00 0.00 0.00 45 1010.9
20260506114508 62 325 10.0 0.0 0.00 0.00 0.00 45 1011.0
20260506113008 63 290 10.0 0.0 0.00 0.00 0.00 41 1011.0
20260506111507 63 319 10.0 0.0 0.00 0.00 0.00 38 1011.0
20260506110005 65 300 8.0 0.0 0.00 0.00 0.00 40 1011.2
20260506104504 65 277 9.0 0.0 0.00 0.00 0.00 35 1011.2
20260506103004 65 279 9.0 0.0 0.00 0.00 0.00 37 1011.2
20260506101506 65 297 8.0 0.0 0.00 0.00 0.00 35 1011.2
20260506100001 66 294 8.0 0.0 0.00 0.00 0.00 37 1011.2
20260506094559 64 263 7.0 0.0 0.00 0.00 0.00 39 1011.2
20260506093055 62 233 8.0 0.0 0.00 0.00 0.00 37 1011.3
20260506091551 59 232 8.0 0.0 0.00 0.00 0.00 40 1011.3
20260506090047 56 214 8.0 0.0 0.00 0.00 0.00 40 1011.3
20260506084607 56 199 6.0 0.0 0.00 0.00 0.00 39 1011.3
20260506083045 54 166 6.0 0.0 0.00 0.00 0.00 35 1011.3
20260506081549 54 125 4.0 0.0 0.00 0.00 0.00 36 1011.4
20260506073043 52 116 7.0 0.0 0.00 0.00 0.00 39 1011.6
20260506071536 51 109 5.0 0.0 0.00 0.00 0.00 43 1011.7